This is the latest recevied weather packets stored in our database for station/object OK2ZI. If no packets are shown the sender has not sent any weather packets the latest 10 day(s).
| Time | Temp. | Humidity | Pressure | Rain* | Wind** | Luminosity | Snow |
|---|---|---|---|---|---|---|---|
| 1777564927 | 12.78° C | 28% | 1024 hPa | 0 mm | - | - | - |
| 1777564821 | 12.78° C | 29% | 1024 hPa | 0 mm | - | - | - |
| 1777563848 | 13.33° C | 29% | 1024 hPa | 0 mm | - | - | - |
| 1777563367 | 12.78° C | 28% | 1024 hPa | 0 mm | - | - | - |
| 1777562531 | 12.78° C | 30% | 1024 hPa | 0 mm | - | - | - |
| 1777562045 | 12.78° C | 26% | 1024 hPa | 0 mm | - | - | - |
| 1777561927 | 12.78° C | 26% | 1024 hPa | 0 mm | - | - | - |
| 1777561808 | 12.78° C | 29% | 1024 hPa | 0 mm | - | - | - |
| 1777558926 | 12.78° C | 30% | 1024 hPa | 0 mm | - | - | - |
| 1777558685 | 12.78° C | 29% | 1025 hPa | 0 mm | - | - | - |
| 1777557728 | 12.78° C | 35% | 1025 hPa | 0 mm | - | - | - |
| 1777557619 | 12.78° C | 32% | 1025 hPa | 0 mm | - | - | - |
| 1777557367 | 12.78° C | 32% | 1025 hPa | 0 mm | - | - | - |
| 1777557012 | 12.22° C | 34% | 1025 hPa | 0 mm | - | - | - |
| 1777555687 | 12.22° C | 32% | 1025 hPa | 0 mm | - | - | - |
| 1777555567 | 12.22° C | 32% | 1025 hPa | 0 mm | - | - | - |
| 1777555327 | 12.22° C | 31% | 1025 hPa | 0 mm | - | - | - |
| 1777555087 | 12.22° C | 33% | 1025 hPa | 0 mm | - | - | - |
| 1777553887 | 11.67° C | 37% | 1025 hPa | 0 mm | - | - | - |
| 1777552327 | 11.67° C | 36% | 1025 hPa | 0 mm | - | - | - |
| 1777551727 | 11.67° C | 31% | 1025 hPa | 0 mm | - | - | - |
| 1777551366 | 11.11° C | 31% | 1025 hPa | 0 mm | - | - | - |
| 1777551013 | 11.67° C | 31% | 1025 hPa | 0 mm | - | - | - |
| 1777549927 | 11.67° C | 32% | 1026 hPa | 0 mm | - | - | - |
| 1777549446 | 11.11° C | 30% | 1026 hPa | 0 mm | - | - | - |
* Rain latest hour (hover to see other rain measurements)
** Current wind speed in m/s (hover to see current wind gust speed)